Rockwall, TX

5:51 AM CDT on August 24, 2017 (GMT -0500)
Rockwall

Weather History for KF46 - October, 2013

Change the Weather History Date:

Saturday, October 12, 2013

  Actual Average (KDFW) Record (KDFW)
Temperature  
Mean Temperature 79 °F -  
Max Temperature 90 °F 77 °F 97 °F (1979)
Min Temperature 69 °F 56 °F 35 °F (1977)
Cooling Degree Days 14    
Growing Degree Days 29 (Base 50)    
Moisture  
Dew Point 71 °F    
Average Humidity 81    
Maximum Humidity 95    
Minimum Humidity 54    
Precipitation  
Precipitation 0.21 in - - ()
Sea Level Pressure  
Sea Level Pressure 29.97 in    
Wind  
Wind Speed 10 mph (South)    
Max Wind Speed 18 mph    
Max Gust Speed 30 mph    
Visibility 10 miles    
Events Rain    
Averages and records for this station are not official NWS values.
T = Trace of Precipitation, MM = Missing Value Source: NWS Daily Summary

Daily Weather History Graph

Daily Weather History Graph

Search for Another Location

Airport or City:

Trip Planner

Search our weather history database for the weather conditions in past years. The results will help you decide how hot, cold, wet, or windy it might be!

Date:

Astronomy

Oct. 12, 2013 Rise Set
Actual Time 7:27 AM CDT 6:55 PM CDT
Civil Twilight 7:03 AM CDT 7:20 PM CDT
Nautical Twilight 6:34 AM CDT 7:49 PM CDT
Astronomical Twilight 6:05 AM CDT 8:17 PM CDT
Moon 2:48 PM CDT (10/12) 12:52 AM CDT (10/12)
Length of Visible Light 12h 17m
Length of Day
11h 27m
First Quarter, 59% of the Moon is Illuminated
Oct 12
First Quarter
Oct 18
Full
Oct 26
Last Quarter
Nov 3
New
Nov 9
First Quarter

Hourly Weather History & Observations

Time (CDT) Temp. Heat Index Dew Point Humidity Pressure Visibility Wind Dir Wind Speed Gust Speed Precip Events Conditions
12:15 AM 77.0 °F - 69.4 °F 77% 29.89 in 10.0 mi South 9.2 mph - N/A   Mostly Cloudy
12:35 AM 76.5 °F - 69.4 °F 79% 29.89 in 10.0 mi South 11.5 mph 16.1 mph N/A   Clear
12:55 AM 76.3 °F - 69.8 °F 80% 29.89 in 10.0 mi South 12.7 mph 20.7 mph N/A   Clear
1:15 AM 76.1 °F - 69.8 °F 81% 29.89 in 10.0 mi South 10.4 mph 16.1 mph N/A   Mostly Cloudy
1:35 AM 76.3 °F - 69.8 °F 80% 29.89 in 10.0 mi South 11.5 mph 20.7 mph N/A   Overcast
1:55 AM 75.7 °F - 70.0 °F 82% 29.90 in 10.0 mi South 12.7 mph 20.7 mph N/A   Mostly Cloudy
2:15 AM 75.6 °F - 70.3 °F 84% 29.90 in 10.0 mi South 11.5 mph - N/A   Mostly Cloudy
2:35 AM 75.6 °F - 70.7 °F 85% 29.90 in 10.0 mi South 15.0 mph 19.6 mph N/A   Mostly Cloudy
2:55 AM 75.4 °F - 70.9 °F 86% 29.90 in 10.0 mi South 15.0 mph 18.4 mph N/A   Scattered Clouds
3:15 AM 75.7 °F - 71.1 °F 85% 29.90 in 10.0 mi South 15.0 mph 20.7 mph N/A   Overcast
3:35 AM 75.6 °F - 71.2 °F 86% 29.90 in 10.0 mi South 16.1 mph 20.7 mph N/A   Overcast
3:55 AM 75.7 °F - 71.6 °F 87% 29.90 in 10.0 mi South 12.7 mph 24.2 mph N/A   Overcast
4:15 AM 75.7 °F - 71.6 °F 87% 29.91 in 10.0 mi South 15.0 mph 20.7 mph N/A   Overcast
4:35 AM 75.6 °F - 71.8 °F 88% 29.91 in 10.0 mi SSW 11.5 mph 17.3 mph N/A   Overcast
6:15 AM 74.8 °F - 72.1 °F 91% 29.93 in 10.0 mi South 12.7 mph - N/A   Overcast
6:35 AM 74.7 °F - 72.0 °F 91% 29.94 in 10.0 mi SSW 11.5 mph - N/A   Overcast
6:55 AM 74.1 °F - 72.0 °F 93% 29.95 in 10.0 mi South 12.7 mph - N/A   Overcast
7:15 AM 73.4 °F - 71.6 °F 94% 29.95 in 10.0 mi SSW 12.7 mph - N/A   Overcast
7:35 AM 73.4 °F - 71.8 °F 95% 29.95 in 10.0 mi SSW 12.7 mph - N/A   Overcast
7:55 AM 73.4 °F - 72.0 °F 95% 29.96 in 10.0 mi South 11.5 mph - N/A   Overcast
8:15 AM 73.8 °F - 72.1 °F 95% 29.97 in 10.0 mi South 9.2 mph 16.1 mph N/A   Overcast
8:35 AM 74.5 °F - 72.5 °F 94% 29.98 in 10.0 mi SSW 12.7 mph 16.1 mph N/A   Overcast
8:55 AM 75.2 °F - 72.5 °F 91% 29.98 in 10.0 mi South 10.4 mph 16.1 mph N/A   Overcast
9:15 AM 75.9 °F - 72.7 °F 90% 29.99 in 10.0 mi SSW 10.4 mph 16.1 mph N/A   Overcast
9:35 AM 76.5 °F - 73.0 °F 89% 30.00 in 10.0 mi SSW 10.4 mph 16.1 mph N/A   Overcast
9:55 AM 77.4 °F - 73.4 °F 88% 30.00 in 10.0 mi SSW 10.4 mph - N/A   Overcast
10:15 AM 78.3 °F - 73.2 °F 84% 30.00 in 10.0 mi SSW 11.5 mph - N/A   Overcast
10:35 AM 79.7 °F - 73.6 °F 81% 30.00 in 10.0 mi SSW 11.5 mph - N/A   Overcast
10:55 AM 79.5 °F - 73.4 °F 81% 30.01 in 10.0 mi SW 11.5 mph - N/A   Overcast
11:15 AM 79.2 °F - 73.4 °F 82% 30.01 in 10.0 mi SW 8.1 mph - N/A   Overcast
11:35 AM 80.6 °F 85.4 °F 73.4 °F 79% 30.00 in 10.0 mi SSW 10.4 mph - N/A   Overcast
11:55 AM 82.0 °F 87.7 °F 73.6 °F 75% 30.00 in 10.0 mi SSW 11.5 mph - N/A   Overcast
12:15 PM 83.1 °F 89.8 °F 73.9 °F 74% 30.00 in 10.0 mi SSW 4.6 mph - N/A   Overcast
12:35 PM 83.8 °F 90.8 °F 73.9 °F 72% 29.99 in 10.0 mi South 4.6 mph - N/A   Mostly Cloudy
12:55 PM 84.9 °F 92.1 °F 73.9 °F 69% 29.98 in 10.0 mi SSW 8.1 mph - N/A   Scattered Clouds
1:15 PM 85.1 °F 92.2 °F 73.6 °F 68% 29.97 in 10.0 mi Calm Calm - N/A   Scattered Clouds
1:35 PM 84.9 °F 91.8 °F 73.4 °F 68% 29.96 in 10.0 mi Calm Calm - N/A   Scattered Clouds
1:55 PM 87.1 °F 94.5 °F 73.2 °F 63% 29.95 in 10.0 mi Calm Calm - N/A   Clear
2:15 PM 87.1 °F 94.5 °F 73.2 °F 63% 29.94 in 10.0 mi SSW 4.6 mph - N/A   Clear
2:35 PM 86.9 °F 93.7 °F 72.5 °F 62% 29.93 in 10.0 mi Calm Calm - N/A   Scattered Clouds
2:55 PM 87.4 °F 94.0 °F 72.1 °F 60% 29.93 in 10.0 mi SSW 3.5 mph - N/A   Scattered Clouds
3:15 PM 88.3 °F 95.0 °F 71.8 °F 58% 29.93 in 10.0 mi Calm Calm - N/A   Clear
3:35 PM 88.9 °F 94.2 °F 70.5 °F 54% 29.92 in 10.0 mi East 3.5 mph - N/A   Clear
3:55 PM 81.7 °F 85.6 °F 70.7 °F 69% 29.94 in 10.0 mi SSE 18.4 mph 29.9 mph N/A   Mostly Cloudy
4:15 PM 81.3 °F 83.6 °F 66.6 °F 61% 29.94 in 10.0 mi SSE 17.3 mph 23.0 mph N/A   Scattered Clouds
4:35 PM 80.1 °F 82.3 °F 66.9 °F 64% 29.94 in 10.0 mi SE 9.2 mph 19.6 mph N/A   Clear
4:55 PM 80.6 °F 82.8 °F 66.4 °F 62% 29.93 in 10.0 mi SE 6.9 mph - N/A   Clear
5:15 PM 80.1 °F 82.1 °F 66.0 °F 62% 29.96 in 10.0 mi North 6.9 mph - N/A Rain Light Rain
5:35 PM 74.8 °F - 69.1 °F 82% 29.96 in 1.8 mi East 5.8 mph - 0.11 in Rain Heavy Rain
5:55 PM 75.0 °F - 67.6 °F 78% 29.94 in 10.0 mi SSE 6.9 mph - 0.21 in Rain Light Rain
6:15 PM 76.1 °F - 71.2 °F 85% 29.94 in 10.0 mi SSW 4.6 mph - N/A   Overcast
6:35 PM 75.2 °F - 70.9 °F 86% 29.94 in 10.0 mi Calm Calm - N/A   Scattered Clouds
6:55 PM 74.5 °F - 71.8 °F 91% 29.98 in 10.0 mi ENE 17.3 mph 23.0 mph N/A   Scattered Clouds
7:15 PM 73.4 °F - 68.0 °F 83% 29.99 in 10.0 mi ENE 6.9 mph - N/A   Scattered Clouds
7:35 PM 73.2 °F - 68.0 °F 84% 30.01 in 10.0 mi East 6.9 mph - N/A   Clear
7:55 PM 72.7 °F - 68.4 °F 86% 30.03 in 10.0 mi East 5.8 mph - N/A   Clear
8:15 PM 72.9 °F - 69.1 °F 88% 30.04 in 10.0 mi East 9.2 mph - N/A   Clear
8:35 PM 72.9 °F - 68.9 °F 87% 30.04 in 10.0 mi East 6.9 mph - N/A   Clear
8:55 PM 72.9 °F - 68.0 °F 85% 30.05 in 10.0 mi East 10.4 mph - N/A   Scattered Clouds
9:15 PM 72.1 °F - 67.3 °F 85% 30.06 in 10.0 mi East 8.1 mph - N/A   Scattered Clouds
9:35 PM 71.2 °F - 67.1 °F 87% 30.05 in 10.0 mi East 6.9 mph - N/A   Clear
9:55 PM 70.7 °F - 67.1 °F 88% 30.06 in 10.0 mi ESE 5.8 mph - N/A   Clear
10:15 PM 70.2 °F - 67.1 °F 90% 30.07 in 10.0 mi SE 6.9 mph - N/A   Clear
10:35 PM 70.7 °F - 66.9 °F 88% 30.07 in 10.0 mi SSE 8.1 mph - N/A   Scattered Clouds
10:55 PM 70.7 °F - 66.7 °F 87% 30.07 in 10.0 mi SSE 5.8 mph - N/A   Scattered Clouds
11:15 PM 70.5 °F - 66.2 °F 86% 30.07 in 10.0 mi SSE 5.8 mph - N/A   Clear
11:35 PM 70.3 °F - 66.2 °F 87% 30.07 in 10.0 mi SE 5.8 mph - N/A   Clear
11:55 PM 69.8 °F - 66.2 °F 88% 30.06 in 10.0 mi SE 6.9 mph - N/A   Clear